Tracking 30918 objects as of 2-Jul-2025
HD Live streaming from Space Station
objects crossing your sky now

ARIANE 42P+ DEB

Track ARIANE 42P+ DEB now!
10-day predictions


NORAD ID: 34184
Int'l Code: 1992-072Q
Perigee: 300.3 km
Apogee: 24,841.4 km
Inclination: 7.0 °
Period: 432.4 minutes
Semi major axis: 18941 km
RCS: 0.3004 m2 (medium)
Launch date: October 28, 1992
Source: France (FR)
Launch site: FRENCH GUIANA (FRGUI)

Note: This is SATELLITE DEBRIS
Your satellite tracking list
Your tracking list is empty




NASA's NSSDC Master Catalog

Two Line Element Set (TLE):
1 34184U 92072Q   25181.56641840  .00001640  00000-0  60552-3 0  9993
2 34184   6.9637 267.9240 6477991 309.4962   9.2682  3.33019169263844
Source of the keplerian elements: AFSPC